Year,Month,Day,Hour,Minute,Value (Times are PST for temperature in C)
2012,11,10,00,00,1.60
2012,11,10,00,01,1.60
2012,11,10,00,02,1.60
2012,11,10,00,03,1.60
2012,11,10,00,04,1.60
2012,11,10,00,05,1.60
2012,11,10,00,06,1.60
2012,11,10,00,07,1.60
2012,11,10,00,08,1.60
2012,11,10,00,09,1.60
2012,11,10,00,10,1.60
2012,11,10,00,11,1.60
2012,11,10,00,12,1.50
2012,11,10,00,13,1.50
2012,11,10,00,14,1.50
2012,11,10,00,15,1.50
2012,11,10,00,16,1.50
2012,11,10,00,17,1.50
2012,11,10,00,18,1.40
2012,11,10,00,19,1.40
2012,11,10,00,20,1.40
2012,11,10,00,21,1.40
2012,11,10,00,22,1.40
2012,11,10,00,23,1.40
2012,11,10,00,24,1.40
2012,11,10,00,25,1.40
2012,11,10,00,26,1.40
2012,11,10,00,27,1.40
2012,11,10,00,28,1.40
2012,11,10,00,29,1.40
2012,11,10,00,30,1.40
2012,11,10,00,31,1.40
2012,11,10,00,32,1.40
2012,11,10,00,33,1.30
2012,11,10,00,34,1.30
2012,11,10,00,35,1.30
2012,11,10,00,36,1.30
2012,11,10,00,37,1.30
2012,11,10,00,38,1.30
2012,11,10,00,39,1.30
2012,11,10,00,40,1.30
2012,11,10,00,41,1.30
2012,11,10,00,42,1.20
2012,11,10,00,43,1.20
2012,11,10,00,44,1.20
2012,11,10,00,45,1.20
2012,11,10,00,46,1.20
2012,11,10,00,47,1.20
2012,11,10,00,48,1.20
2012,11,10,00,49,1.20
2012,11,10,00,50,1.20
2012,11,10,00,51,1.20
2012,11,10,00,52,1.20
2012,11,10,00,53,1.20
2012,11,10,00,54,1.10
2012,11,10,00,55,1.10
2012,11,10,00,56,1.10
2012,11,10,00,57,1.10
2012,11,10,00,58,1.10
2012,11,10,00,59,1.10
2012,11,10,01,00,1.10
2012,11,10,01,01,1.10
2012,11,10,01,02,1.10
2012,11,10,01,03,1.10
2012,11,10,01,04,1.10
2012,11,10,01,05,1.10
2012,11,10,01,06,1.10
2012,11,10,01,07,1.10
2012,11,10,01,08,1.00
2012,11,10,01,09,1.00
2012,11,10,01,10,1.00
2012,11,10,01,11,1.00
2012,11,10,01,12,1.00
2012,11,10,01,13,1.00
2012,11,10,01,14,0.90
2012,11,10,01,15,0.90
2012,11,10,01,16,0.90
2012,11,10,01,17,0.90
2012,11,10,01,18,0.90
2012,11,10,01,19,0.90
2012,11,10,01,20,0.90
2012,11,10,01,21,0.90
2012,11,10,01,22,0.90
2012,11,10,01,23,0.90
2012,11,10,01,24,0.90
2012,11,10,01,25,0.90
2012,11,10,01,26,0.80
2012,11,10,01,27,0.80
2012,11,10,01,28,0.80
2012,11,10,01,29,0.80
2012,11,10,01,30,0.80
2012,11,10,01,31,0.80
2012,11,10,01,32,0.70
2012,11,10,01,33,0.70
2012,11,10,01,34,0.70
2012,11,10,01,35,0.70
2012,11,10,01,36,0.60
2012,11,10,01,37,0.60
2012,11,10,01,38,0.60
2012,11,10,01,39,0.60
2012,11,10,01,40,0.60
2012,11,10,01,41,0.60
2012,11,10,01,42,0.50
2012,11,10,01,43,0.50
2012,11,10,01,44,0.50
2012,11,10,01,45,0.50
2012,11,10,01,46,0.50
2012,11,10,01,47,0.50
2012,11,10,01,48,0.50
2012,11,10,01,49,0.50
2012,11,10,01,50,0.40
2012,11,10,01,51,0.40
2012,11,10,01,52,0.40
2012,11,10,01,53,0.40
2012,11,10,01,54,0.40
2012,11,10,01,55,0.40
2012,11,10,01,56,0.40
2012,11,10,01,57,0.40
2012,11,10,01,58,0.40
2012,11,10,01,59,0.40
2012,11,10,02,00,0.40
2012,11,10,02,01,0.40
2012,11,10,02,02,0.40
2012,11,10,02,03,0.40
2012,11,10,02,04,0.40
2012,11,10,02,05,0.40
2012,11,10,02,06,0.40
2012,11,10,02,07,0.40
2012,11,10,02,08,0.40
2012,11,10,02,09,0.40
2012,11,10,02,10,0.40
2012,11,10,02,11,0.40
2012,11,10,02,12,0.50
2012,11,10,02,13,0.50
2012,11,10,02,14,0.50
2012,11,10,02,15,0.50
2012,11,10,02,16,0.50
2012,11,10,02,17,0.60
2012,11,10,02,18,0.60
2012,11,10,02,19,0.60
2012,11,10,02,20,0.60
2012,11,10,02,21,0.60
2012,11,10,02,22,0.60
2012,11,10,02,23,0.60
2012,11,10,02,24,0.70
2012,11,10,02,25,0.70
2012,11,10,02,26,0.70
2012,11,10,02,27,0.70
2012,11,10,02,28,0.70
2012,11,10,02,29,0.70
2012,11,10,02,30,0.70
2012,11,10,02,31,0.70
2012,11,10,02,32,0.70
2012,11,10,02,33,0.70
2012,11,10,02,34,0.70
2012,11,10,02,35,0.70
2012,11,10,02,36,0.70
2012,11,10,02,37,0.70
2012,11,10,02,38,0.70
2012,11,10,02,39,0.70
2012,11,10,02,40,0.70
2012,11,10,02,41,0.80
2012,11,10,02,42,0.70
2012,11,10,02,43,0.80
2012,11,10,02,44,0.80
2012,11,10,02,45,0.80
2012,11,10,02,46,0.80
2012,11,10,02,47,0.80
2012,11,10,02,48,0.80
2012,11,10,02,49,0.80
2012,11,10,02,50,0.80
2012,11,10,02,51,0.80
2012,11,10,02,52,0.80
2012,11,10,02,53,0.80
2012,11,10,02,54,0.80
2012,11,10,02,55,0.80
2012,11,10,02,56,0.80
2012,11,10,02,57,0.80
2012,11,10,02,58,0.80
2012,11,10,02,59,0.80
2012,11,10,03,00,0.80
2012,11,10,03,01,0.80
2012,11,10,03,02,0.80
2012,11,10,03,03,0.80
2012,11,10,03,06,0.70
2012,11,10,03,07,0.70
2012,11,10,03,08,0.70
2012,11,10,03,09,0.70
2012,11,10,03,10,0.70
2012,11,10,03,11,0.70
2012,11,10,03,12,0.70
2012,11,10,03,13,0.70
2012,11,10,03,14,0.60
2012,11,10,03,15,0.60
2012,11,10,03,16,0.60
2012,11,10,03,17,0.60
2012,11,10,03,18,0.50
2012,11,10,03,19,0.50
2012,11,10,03,20,0.50
2012,11,10,03,21,0.50
2012,11,10,03,22,0.40
2012,11,10,03,23,0.40
2012,11,10,03,24,0.40
2012,11,10,03,25,0.40
2012,11,10,03,26,0.40
2012,11,10,03,27,0.30
2012,11,10,03,28,0.30
2012,11,10,03,29,0.30
2012,11,10,03,30,0.30
2012,11,10,03,31,0.30
2012,11,10,03,32,0.20
2012,11,10,03,33,0.20
2012,11,10,03,34,0.20
2012,11,10,03,35,0.20
2012,11,10,03,36,0.10
2012,11,10,03,37,0.10
2012,11,10,03,38,0.10
2012,11,10,03,39,0.10
2012,11,10,03,40,0.00
2012,11,10,03,41,0.00
2012,11,10,03,42,0.00
2012,11,10,03,43,-0.10
2012,11,10,03,44,-0.10
2012,11,10,03,45,-0.10
2012,11,10,03,46,-0.10
2012,11,10,03,47,-0.20
2012,11,10,03,48,-0.20
2012,11,10,03,49,-0.20
2012,11,10,03,50,-0.20
2012,11,10,03,51,-0.30
2012,11,10,03,52,-0.30
2012,11,10,03,53,-0.30
2012,11,10,03,54,-0.30
2012,11,10,03,55,-0.30
2012,11,10,03,56,-0.40
2012,11,10,03,57,-0.40
2012,11,10,03,58,-0.40
2012,11,10,03,59,-0.40
2012,11,10,04,00,-0.50
2012,11,10,04,01,-0.50
2012,11,10,04,02,-0.50
2012,11,10,04,03,-0.50
2012,11,10,04,04,-0.50
2012,11,10,04,05,-0.50
2012,11,10,04,06,-0.60
2012,11,10,04,07,-0.60
2012,11,10,04,08,-0.60
2012,11,10,04,09,-0.60
2012,11,10,04,10,-0.60
2012,11,10,04,11,-0.60
2012,11,10,04,12,-0.70
2012,11,10,04,13,-0.70
2012,11,10,04,14,-0.70
2012,11,10,04,15,-0.70
2012,11,10,04,16,-0.70
2012,11,10,04,17,-0.80
2012,11,10,04,18,-0.80
2012,11,10,04,19,-0.80
2012,11,10,04,20,-0.80
2012,11,10,04,21,-0.80
2012,11,10,04,22,-0.80
2012,11,10,04,23,-0.80
2012,11,10,04,24,-0.90
2012,11,10,04,25,-0.90
2012,11,10,04,26,-0.90
2012,11,10,04,27,-0.90
2012,11,10,04,28,-0.90
2012,11,10,04,29,-1.00
2012,11,10,04,30,-1.00
2012,11,10,04,31,-1.00
2012,11,10,04,32,-1.00
2012,11,10,04,33,-1.10
2012,11,10,04,34,-1.10
2012,11,10,04,35,-1.10
2012,11,10,04,36,-1.10
2012,11,10,04,37,-1.10
2012,11,10,04,38,-1.10
2012,11,10,04,39,-1.10
2012,11,10,04,40,-1.20
2012,11,10,04,41,-1.20
2012,11,10,04,42,-1.20
2012,11,10,04,43,-1.20
2012,11,10,04,44,-1.20
2012,11,10,04,45,-1.20
2012,11,10,04,46,-1.20
2012,11,10,04,47,-1.20
2012,11,10,04,48,-1.20
2012,11,10,04,49,-1.10
2012,11,10,04,50,-1.10
2012,11,10,04,51,-1.10
2012,11,10,04,52,-1.10
2012,11,10,04,53,-1.10
2012,11,10,04,54,-1.10
2012,11,10,04,55,-1.10
2012,11,10,04,56,-1.10
2012,11,10,04,57,-1.10
2012,11,10,04,58,-1.10
2012,11,10,04,59,-1.10
2012,11,10,05,00,-1.10
2012,11,10,05,01,-1.10
2012,11,10,05,02,-1.10
2012,11,10,05,03,-1.10
2012,11,10,05,04,-1.10
2012,11,10,05,05,-1.10
2012,11,10,05,06,-1.10
2012,11,10,05,07,-1.10
2012,11,10,05,08,-1.10
2012,11,10,05,09,-1.10
2012,11,10,05,10,-1.10
2012,11,10,05,11,-1.10
2012,11,10,05,12,-1.10
2012,11,10,05,13,-1.10
2012,11,10,05,14,-1.10
2012,11,10,05,15,-1.00
2012,11,10,05,16,-1.00
2012,11,10,05,17,-1.00
2012,11,10,05,18,-1.00
2012,11,10,05,19,-1.00
2012,11,10,05,20,-1.10
2012,11,10,05,21,-1.10
2012,11,10,05,22,-1.10
2012,11,10,05,23,-1.10
2012,11,10,05,24,-1.10
2012,11,10,05,25,-1.10
2012,11,10,05,26,-1.10
2012,11,10,05,27,-1.10
2012,11,10,05,28,-1.10
2012,11,10,05,29,-1.10
2012,11,10,05,30,-1.10
2012,11,10,05,31,-1.10
2012,11,10,05,32,-1.20
2012,11,10,05,33,-1.20
2012,11,10,05,34,-1.20
2012,11,10,05,35,-1.20
2012,11,10,05,36,-1.20
2012,11,10,05,37,-1.30
2012,11,10,05,38,-1.30
2012,11,10,05,39,-1.30
2012,11,10,05,40,-1.30
2012,11,10,05,41,-1.30
2012,11,10,05,42,-1.30
2012,11,10,05,43,-1.30
2012,11,10,05,44,-1.30
2012,11,10,05,45,-1.30
2012,11,10,05,46,-1.30
2012,11,10,05,47,-1.30
2012,11,10,05,48,-1.30
2012,11,10,05,49,-1.30
2012,11,10,05,50,-1.30
2012,11,10,05,51,-1.30
2012,11,10,05,52,-1.30
2012,11,10,05,53,-1.30
2012,11,10,05,54,-1.30
2012,11,10,05,55,-1.30
2012,11,10,05,56,-1.30
2012,11,10,05,57,-1.30
2012,11,10,05,58,-1.30
2012,11,10,05,59,-1.30
2012,11,10,06,00,-1.30
2012,11,10,06,01,-1.30
2012,11,10,06,02,-1.30
2012,11,10,06,03,-1.30
2012,11,10,06,04,-1.30
2012,11,10,06,05,-1.30
2012,11,10,06,06,-1.30
2012,11,10,06,07,-1.30
2012,11,10,06,08,-1.30
2012,11,10,06,09,-1.40
2012,11,10,06,10,-1.40
2012,11,10,06,11,-1.40
2012,11,10,06,12,-1.40
2012,11,10,06,13,-1.40
2012,11,10,06,14,-1.40
2012,11,10,06,15,-1.40
2012,11,10,06,16,-1.40
2012,11,10,06,17,-1.40
2012,11,10,06,18,-1.40
2012,11,10,06,19,-1.40
2012,11,10,06,20,-1.40
2012,11,10,06,21,-1.50
2012,11,10,06,22,-1.50
2012,11,10,06,23,-1.50
2012,11,10,06,24,-1.50
2012,11,10,06,25,-1.60
2012,11,10,06,26,-1.60
2012,11,10,06,27,-1.60
2012,11,10,06,28,-1.60
2012,11,10,06,29,-1.70
2012,11,10,06,30,-1.70
2012,11,10,06,31,-1.70
2012,11,10,06,32,-1.70
2012,11,10,06,33,-1.70
2012,11,10,06,34,-1.70
2012,11,10,06,35,-1.70
2012,11,10,06,36,-1.70
2012,11,10,06,37,-1.70
2012,11,10,06,38,-1.70
2012,11,10,06,39,-1.80
2012,11,10,06,40,-1.80
2012,11,10,06,41,-1.80
2012,11,10,06,42,-1.80
2012,11,10,06,43,-1.80
2012,11,10,06,44,-1.80
2012,11,10,06,45,-1.80
2012,11,10,06,46,-1.80
2012,11,10,06,47,-1.80
2012,11,10,06,48,-1.80
2012,11,10,06,49,-1.80
2012,11,10,06,50,-1.80
2012,11,10,06,51,-1.80
2012,11,10,06,52,-1.70
2012,11,10,06,53,-1.70
2012,11,10,06,54,-1.70
2012,11,10,06,55,-1.70
2012,11,10,06,56,-1.70
2012,11,10,06,57,-1.70
2012,11,10,06,58,-1.70
2012,11,10,06,59,-1.80
2012,11,10,07,00,-1.80
2012,11,10,07,01,-1.80
2012,11,10,07,02,-1.80
2012,11,10,07,03,-1.80
2012,11,10,07,04,-1.80
2012,11,10,07,05,-1.80
2012,11,10,07,06,-1.90
2012,11,10,07,07,-1.90
2012,11,10,07,08,-1.90
2012,11,10,07,09,-1.90
2012,11,10,07,10,-1.90
2012,11,10,07,11,-1.90
2012,11,10,07,12,-1.90
2012,11,10,07,13,-1.90
2012,11,10,07,14,-2.00
2012,11,10,07,15,-1.90
2012,11,10,07,16,-1.90
2012,11,10,07,17,-1.90
2012,11,10,07,18,-1.90
2012,11,10,07,19,-1.90
2012,11,10,07,20,-1.90
2012,11,10,07,21,-1.90
2012,11,10,07,22,-1.90
2012,11,10,07,23,-1.90
2012,11,10,07,24,-2.00
2012,11,10,07,25,-2.00
2012,11,10,07,26,-2.00
2012,11,10,07,27,-2.00
2012,11,10,07,28,-2.00
2012,11,10,07,29,-2.10
2012,11,10,07,30,-2.10
2012,11,10,07,31,-2.10
2012,11,10,07,32,-2.10
2012,11,10,07,33,-2.20
2012,11,10,07,34,-2.20
2012,11,10,07,35,-2.20
2012,11,10,07,36,-2.20
2012,11,10,07,37,-2.30
2012,11,10,07,38,-2.30
2012,11,10,07,39,-2.30
2012,11,10,07,40,-2.30
2012,11,10,07,41,-2.30
2012,11,10,07,42,-2.30
2012,11,10,07,43,-2.40
2012,11,10,07,44,-2.30
2012,11,10,07,45,-2.30
2012,11,10,07,46,-2.30
2012,11,10,07,47,-2.30
2012,11,10,07,48,-2.30
2012,11,10,07,49,-2.30
2012,11,10,07,50,-2.30
2012,11,10,07,51,-2.20
2012,11,10,07,52,-2.20
2012,11,10,07,53,-2.20
2012,11,10,07,54,-2.20
2012,11,10,07,55,-2.10
2012,11,10,07,56,-2.00
2012,11,10,07,57,-2.00
2012,11,10,07,58,-1.90
2012,11,10,07,59,-1.90
2012,11,10,08,00,-1.90
2012,11,10,08,01,-1.80
2012,11,10,08,02,-1.80
2012,11,10,08,03,-1.80
2012,11,10,08,04,-1.70
2012,11,10,08,05,-1.70
2012,11,10,08,06,-1.70
2012,11,10,08,07,-1.70
2012,11,10,08,08,-1.70
2012,11,10,08,09,-1.70
2012,11,10,08,10,-1.70
2012,11,10,08,11,-1.70
2012,11,10,08,12,-1.60
2012,11,10,08,13,-1.60
2012,11,10,08,14,-1.60
2012,11,10,08,15,-1.60
2012,11,10,08,16,-1.60
2012,11,10,08,17,-1.60
2012,11,10,08,18,-1.60
2012,11,10,08,19,-1.60
2012,11,10,08,20,-1.60
2012,11,10,08,21,-1.50
2012,11,10,08,22,-1.50
2012,11,10,08,23,-1.50
2012,11,10,08,24,-1.50
2012,11,10,08,25,-1.50
2012,11,10,08,26,-1.50
2012,11,10,08,27,-1.50
2012,11,10,08,28,-1.50
2012,11,10,08,29,-1.50
2012,11,10,08,30,-1.50
2012,11,10,08,31,-1.50
2012,11,10,08,32,-1.50
2012,11,10,08,33,-1.50
2012,11,10,08,34,-1.50
2012,11,10,08,35,-1.50
2012,11,10,08,36,-1.40
2012,11,10,08,37,-1.40
2012,11,10,08,38,-1.40
2012,11,10,08,39,-1.40
2012,11,10,08,40,-1.30
2012,11,10,08,41,-1.30
2012,11,10,08,42,-1.30
2012,11,10,08,43,-1.20
2012,11,10,08,44,-1.20
2012,11,10,08,45,-1.10
2012,11,10,08,46,-1.10
2012,11,10,08,47,-1.00
2012,11,10,08,48,-1.00
2012,11,10,08,49,-0.90
2012,11,10,08,50,-0.90
2012,11,10,08,51,-0.80
2012,11,10,08,52,-0.80
2012,11,10,08,53,-0.70
2012,11,10,08,54,-0.60
2012,11,10,08,55,-0.60
2012,11,10,08,56,-0.50
2012,11,10,08,57,-0.40
2012,11,10,08,58,-0.40
2012,11,10,08,59,-0.30
2012,11,10,09,00,-0.30
2012,11,10,09,01,-0.30
2012,11,10,09,02,-0.20
2012,11,10,09,03,-0.20
2012,11,10,09,04,-0.10
2012,11,10,09,05,0.00
2012,11,10,09,06,0.00
2012,11,10,09,07,0.00
2012,11,10,09,08,0.00
2012,11,10,09,09,0.10
2012,11,10,09,10,0.20
2012,11,10,09,11,0.20
2012,11,10,09,12,0.30
2012,11,10,09,13,0.30
2012,11,10,09,14,0.40
2012,11,10,09,15,0.50
2012,11,10,09,16,0.50
2012,11,10,09,17,0.60
2012,11,10,09,18,0.60
2012,11,10,09,19,0.70
2012,11,10,09,20,0.70
2012,11,10,09,21,0.70
2012,11,10,09,22,0.80
2012,11,10,09,23,0.80
2012,11,10,09,24,0.80
2012,11,10,09,25,0.80
2012,11,10,09,26,0.80
2012,11,10,09,27,0.90
2012,11,10,09,28,1.00
2012,11,10,09,29,1.00
2012,11,10,09,30,1.20
2012,11,10,09,31,1.20
2012,11,10,09,32,1.30
2012,11,10,09,33,1.30
2012,11,10,09,34,1.30
2012,11,10,09,35,1.30
2012,11,10,09,36,1.30
2012,11,10,09,37,1.40
2012,11,10,09,38,1.40
2012,11,10,09,39,1.40
2012,11,10,09,40,1.40
2012,11,10,09,41,1.40
2012,11,10,09,42,1.40
2012,11,10,09,43,1.40
2012,11,10,09,44,1.40
2012,11,10,09,45,1.40
2012,11,10,09,46,1.40
2012,11,10,09,47,1.50
2012,11,10,09,48,1.50
2012,11,10,09,49,1.50
2012,11,10,09,50,1.50
2012,11,10,09,51,1.50
2012,11,10,09,52,1.50
2012,11,10,09,53,1.50
2012,11,10,09,54,1.60
2012,11,10,09,55,1.60
2012,11,10,09,56,1.50
2012,11,10,09,57,1.50
2012,11,10,09,58,1.50
2012,11,10,09,59,1.50
2012,11,10,10,00,1.50
2012,11,10,10,01,1.50
2012,11,10,10,02,1.50
2012,11,10,10,03,1.50
2012,11,10,10,04,1.50
2012,11,10,10,05,1.50
2012,11,10,10,06,1.50
2012,11,10,10,07,1.70
2012,11,10,10,08,1.70
2012,11,10,10,09,1.70
2012,11,10,10,10,1.70
2012,11,10,10,11,1.70
2012,11,10,10,12,1.70
2012,11,10,10,13,1.70
2012,11,10,10,14,1.70
2012,11,10,10,15,1.70
2012,11,10,10,16,1.70
2012,11,10,10,17,1.70
2012,11,10,10,18,1.70
2012,11,10,10,19,1.70
2012,11,10,10,20,1.70
2012,11,10,10,21,1.70
2012,11,10,10,22,1.70
2012,11,10,10,23,1.70
2012,11,10,10,24,1.80
2012,11,10,10,25,1.80
2012,11,10,10,26,1.80
2012,11,10,10,27,1.80
2012,11,10,10,28,1.90
2012,11,10,10,29,1.90
2012,11,10,10,30,2.00
2012,11,10,10,31,2.00
2012,11,10,10,32,2.10
2012,11,10,10,33,2.10
2012,11,10,10,34,2.10
2012,11,10,10,35,2.20
2012,11,10,10,36,2.20
2012,11,10,10,37,2.20
2012,11,10,10,38,2.20
2012,11,10,10,39,2.30
2012,11,10,10,40,2.30
2012,11,10,10,41,2.30
2012,11,10,10,42,2.40
2012,11,10,10,43,2.40
2012,11,10,10,44,2.50
2012,11,10,10,45,2.60
2012,11,10,10,46,2.60
2012,11,10,10,47,2.60
2012,11,10,10,48,2.60
2012,11,10,10,49,2.70
2012,11,10,10,50,2.70
2012,11,10,10,51,2.70
2012,11,10,10,52,2.70
2012,11,10,10,53,2.80
2012,11,10,10,54,2.80
2012,11,10,10,55,2.80
2012,11,10,10,56,2.80
2012,11,10,10,57,2.80
2012,11,10,10,58,2.80
2012,11,10,10,59,2.80
2012,11,10,11,00,2.90
2012,11,10,11,01,2.90
2012,11,10,11,02,2.90
2012,11,10,11,03,3.00
2012,11,10,11,04,3.00
2012,11,10,11,05,3.00
2012,11,10,11,06,3.10
2012,11,10,11,07,3.10
2012,11,10,11,08,3.10
2012,11,10,11,09,3.10
2012,11,10,11,10,3.20
2012,11,10,11,11,3.20
2012,11,10,11,12,3.30
2012,11,10,11,13,3.30
2012,11,10,11,14,3.40
2012,11,10,11,15,3.40
2012,11,10,11,16,3.50
2012,11,10,11,17,3.50
2012,11,10,11,18,3.50
2012,11,10,11,19,3.60
2012,11,10,11,20,3.60
2012,11,10,11,21,3.60
2012,11,10,11,22,3.60
2012,11,10,11,23,3.60
2012,11,10,11,24,3.70
2012,11,10,11,25,3.70
2012,11,10,11,26,3.80
2012,11,10,11,27,3.80
2012,11,10,11,28,3.80
2012,11,10,11,29,3.90
2012,11,10,11,30,3.90
2012,11,10,11,31,3.90
2012,11,10,11,32,3.90
2012,11,10,11,33,3.90
2012,11,10,11,34,3.90
2012,11,10,11,35,4.00
2012,11,10,11,36,4.00
2012,11,10,11,37,4.00
2012,11,10,11,38,4.00
2012,11,10,11,39,4.10
2012,11,10,11,40,4.20
2012,11,10,11,41,4.20
2012,11,10,11,42,4.20
2012,11,10,11,43,4.30
2012,11,10,11,44,4.40
2012,11,10,11,45,4.40
2012,11,10,11,46,4.40
2012,11,10,11,47,4.50
2012,11,10,11,48,4.60
2012,11,10,11,49,4.60
2012,11,10,11,50,4.60
2012,11,10,11,51,4.70
2012,11,10,11,52,4.70
2012,11,10,11,53,4.70
2012,11,10,11,54,4.70
2012,11,10,11,55,4.70
2012,11,10,11,56,4.80
2012,11,10,11,57,4.80
2012,11,10,11,58,4.80
2012,11,10,11,59,4.80
2012,11,10,12,00,4.80
2012,11,10,12,01,4.80
2012,11,10,12,02,4.80
2012,11,10,12,03,4.80
2012,11,10,12,04,4.80
2012,11,10,12,05,4.80
2012,11,10,12,06,4.80
2012,11,10,12,07,4.80
2012,11,10,12,08,4.80
2012,11,10,12,09,4.80
2012,11,10,12,10,4.80
2012,11,10,12,11,4.80
2012,11,10,12,12,4.90
2012,11,10,12,13,4.90
2012,11,10,12,14,4.90
2012,11,10,12,15,5.00
2012,11,10,12,16,5.00
2012,11,10,12,17,5.10
2012,11,10,12,18,5.10
2012,11,10,12,19,5.10
2012,11,10,12,20,5.20
2012,11,10,12,21,5.20
2012,11,10,12,22,5.20
2012,11,10,12,23,5.20
2012,11,10,12,24,5.20
2012,11,10,12,25,5.30
2012,11,10,12,26,5.30
2012,11,10,12,27,5.30
2012,11,10,12,28,5.30
2012,11,10,12,29,5.40
2012,11,10,12,30,5.50
2012,11,10,12,31,5.50
2012,11,10,12,32,5.60
2012,11,10,12,33,5.60
2012,11,10,12,34,5.70
2012,11,10,12,35,5.70
2012,11,10,12,36,5.80
2012,11,10,12,37,5.80
2012,11,10,12,38,5.80
2012,11,10,12,39,5.90
2012,11,10,12,40,5.90
2012,11,10,12,41,6.00
2012,11,10,12,42,6.00
2012,11,10,12,43,6.00
2012,11,10,12,44,6.00
2012,11,10,12,45,6.00
2012,11,10,12,46,6.00
2012,11,10,12,47,6.00
2012,11,10,12,48,5.90
2012,11,10,12,49,5.90
2012,11,10,12,50,5.90
2012,11,10,12,51,5.80
2012,11,10,12,52,5.80
2012,11,10,12,53,5.80
2012,11,10,12,54,5.80
2012,11,10,12,55,5.80
2012,11,10,12,56,5.90
2012,11,10,12,57,5.90
2012,11,10,12,58,6.00
2012,11,10,12,59,6.10
2012,11,10,13,00,6.20
2012,11,10,13,01,6.30
2012,11,10,13,02,6.30
2012,11,10,13,03,6.40
2012,11,10,13,04,6.40
2012,11,10,13,05,6.30
2012,11,10,13,06,6.30
2012,11,10,13,07,6.30
2012,11,10,13,08,6.30
2012,11,10,13,09,6.30
2012,11,10,13,10,6.30
2012,11,10,13,11,6.30
2012,11,10,13,12,6.30
2012,11,10,13,13,6.30
2012,11,10,13,14,6.30
2012,11,10,13,15,6.30
2012,11,10,13,16,6.30
2012,11,10,13,17,6.30
2012,11,10,13,18,6.30
2012,11,10,13,19,6.30
2012,11,10,13,20,6.30
2012,11,10,13,21,6.30
2012,11,10,13,22,6.30
2012,11,10,13,23,6.30
2012,11,10,13,24,6.30
2012,11,10,13,25,6.40
2012,11,10,13,26,6.40
2012,11,10,13,27,6.40
2012,11,10,13,28,6.50
2012,11,10,13,29,6.40
2012,11,10,13,30,6.40
2012,11,10,13,31,6.40
2012,11,10,13,32,6.40
2012,11,10,13,33,6.40
2012,11,10,13,34,6.40
2012,11,10,13,35,6.40
2012,11,10,13,36,6.50
2012,11,10,13,37,6.50
2012,11,10,13,38,6.60
2012,11,10,13,39,6.60
2012,11,10,13,40,6.60
2012,11,10,13,41,6.60
2012,11,10,13,42,6.70
2012,11,10,13,43,6.70
2012,11,10,13,44,6.80
2012,11,10,13,45,6.80
2012,11,10,13,46,6.80
2012,11,10,13,47,6.80
2012,11,10,13,48,6.80
2012,11,10,13,49,6.80
2012,11,10,13,50,6.80
2012,11,10,13,51,6.80
2012,11,10,13,52,6.80
2012,11,10,13,53,6.80
2012,11,10,13,54,6.70
2012,11,10,13,55,6.70
2012,11,10,13,56,6.70
2012,11,10,13,57,6.70
2012,11,10,13,58,6.70
2012,11,10,13,59,6.70
2012,11,10,14,00,6.70
2012,11,10,14,01,6.70
2012,11,10,14,02,6.70
2012,11,10,14,03,6.70
2012,11,10,14,04,6.70
2012,11,10,14,05,6.80
2012,11,10,14,06,6.80
2012,11,10,14,07,6.70
2012,11,10,14,08,6.70
2012,11,10,14,09,6.70
2012,11,10,14,10,6.70
2012,11,10,14,11,6.70
2012,11,10,14,12,6.80
2012,11,10,14,13,6.80
2012,11,10,14,14,6.80
2012,11,10,14,15,6.80
2012,11,10,14,16,6.80
2012,11,10,14,17,6.80
2012,11,10,14,18,6.80
2012,11,10,14,19,6.80
2012,11,10,14,20,6.80
2012,11,10,14,21,6.80
2012,11,10,14,22,6.80
2012,11,10,14,23,6.80
2012,11,10,14,24,6.80
2012,11,10,14,25,6.80
2012,11,10,14,26,6.80
2012,11,10,14,27,6.70
2012,11,10,14,28,6.70
2012,11,10,14,29,6.70
2012,11,10,14,30,6.70
2012,11,10,14,31,6.70
2012,11,10,14,32,6.70
2012,11,10,14,33,6.60
2012,11,10,14,34,6.60
2012,11,10,14,35,6.60
2012,11,10,14,36,6.60
2012,11,10,14,37,6.60
2012,11,10,14,38,6.60
2012,11,10,14,39,6.50
2012,11,10,14,40,6.50
2012,11,10,14,41,6.50
2012,11,10,14,42,6.50
2012,11,10,14,43,6.50
2012,11,10,14,44,6.50
2012,11,10,14,45,6.50
2012,11,10,14,46,6.60
2012,11,10,14,47,6.60
2012,11,10,14,48,6.60
2012,11,10,14,49,6.60
2012,11,10,14,50,6.60
2012,11,10,14,51,6.60
2012,11,10,14,52,6.60
2012,11,10,14,53,6.60
2012,11,10,14,54,6.60
2012,11,10,14,55,6.60
2012,11,10,14,56,6.60
2012,11,10,14,57,6.60
2012,11,10,14,58,6.60
2012,11,10,14,59,6.60
2012,11,10,15,00,6.60
2012,11,10,15,01,6.70
2012,11,10,15,02,6.70
2012,11,10,15,03,6.70
2012,11,10,15,04,6.70
2012,11,10,15,05,6.70
2012,11,10,15,06,6.70
2012,11,10,15,07,6.80
2012,11,10,15,08,6.80
2012,11,10,15,09,6.80
2012,11,10,15,10,6.80
2012,11,10,15,11,6.80
2012,11,10,15,12,6.80
2012,11,10,15,13,6.80
2012,11,10,15,14,6.80
2012,11,10,15,15,6.80
2012,11,10,15,16,6.80
2012,11,10,15,17,6.80
2012,11,10,15,18,6.80
2012,11,10,15,19,6.90
2012,11,10,15,20,6.90
2012,11,10,15,21,6.90
2012,11,10,15,22,6.90
2012,11,10,15,23,6.90
2012,11,10,15,24,6.90
2012,11,10,15,25,6.80
2012,11,10,15,26,6.80
2012,11,10,15,27,6.80
2012,11,10,15,28,6.80
2012,11,10,15,29,6.80
2012,11,10,15,30,6.80
2012,11,10,15,31,6.70
2012,11,10,15,32,6.70
2012,11,10,15,33,6.60
2012,11,10,15,34,6.50
2012,11,10,15,35,6.40
2012,11,10,15,36,6.30
2012,11,10,15,37,6.20
2012,11,10,15,38,6.20
2012,11,10,15,39,6.20
2012,11,10,15,40,6.10
2012,11,10,15,41,6.10
2012,11,10,15,42,6.00
2012,11,10,15,43,5.90
2012,11,10,15,44,5.90
2012,11,10,15,45,5.80
2012,11,10,15,46,5.80
2012,11,10,15,47,5.70
2012,11,10,15,48,5.70
2012,11,10,15,49,5.60
2012,11,10,15,50,5.50
2012,11,10,15,51,5.40
2012,11,10,15,52,5.40
2012,11,10,15,53,5.30
2012,11,10,15,54,5.20
2012,11,10,15,55,5.20
2012,11,10,15,56,5.10
2012,11,10,15,57,5.00
2012,11,10,15,58,4.90
2012,11,10,15,59,4.80
2012,11,10,16,00,4.80
2012,11,10,16,01,4.70
2012,11,10,16,02,4.60
2012,11,10,16,03,4.60
2012,11,10,16,04,4.50
2012,11,10,16,05,4.50
2012,11,10,16,06,4.40
2012,11,10,16,07,4.40
2012,11,10,16,08,4.30
2012,11,10,16,09,4.30
2012,11,10,16,10,4.30
2012,11,10,16,11,4.20
2012,11,10,16,12,4.20
2012,11,10,16,13,4.20
2012,11,10,16,14,4.10
2012,11,10,16,15,4.00
2012,11,10,16,16,4.00
2012,11,10,16,17,3.90
2012,11,10,16,18,3.80
2012,11,10,16,19,3.80
2012,11,10,16,20,3.70
2012,11,10,16,21,3.70
2012,11,10,16,22,3.70
2012,11,10,16,23,3.60
2012,11,10,16,24,3.60
2012,11,10,16,25,3.50
2012,11,10,16,26,3.50
2012,11,10,16,27,3.40
2012,11,10,16,28,3.40
2012,11,10,16,29,3.30
2012,11,10,16,30,3.30
2012,11,10,16,31,3.30
2012,11,10,16,32,3.20
2012,11,10,16,33,3.20
2012,11,10,16,34,3.20
2012,11,10,16,35,3.10
2012,11,10,16,36,3.10
2012,11,10,16,37,3.10
2012,11,10,16,38,3.00
2012,11,10,16,39,3.00
2012,11,10,16,40,3.00
2012,11,10,16,41,2.90
2012,11,10,16,42,2.90
2012,11,10,16,43,2.90
2012,11,10,16,44,2.80
2012,11,10,16,45,2.80
2012,11,10,16,46,2.80
2012,11,10,16,47,2.70
2012,11,10,16,48,2.70
2012,11,10,16,49,2.70
2012,11,10,16,50,2.70
2012,11,10,16,51,2.60
2012,11,10,16,52,2.60
2012,11,10,16,53,2.60
2012,11,10,16,54,2.60
2012,11,10,16,55,2.50
2012,11,10,16,56,2.50
2012,11,10,16,57,2.50
2012,11,10,16,58,2.40
2012,11,10,16,59,2.40
2012,11,10,17,00,2.40
2012,11,10,17,01,2.40
2012,11,10,17,02,2.30
2012,11,10,17,03,2.30
2012,11,10,17,04,2.30
2012,11,10,17,05,2.30
2012,11,10,17,06,2.30
2012,11,10,17,07,2.30
2012,11,10,17,08,2.20
2012,11,10,17,09,2.20
2012,11,10,17,10,2.20
2012,11,10,17,11,2.10
2012,11,10,17,12,2.10
2012,11,10,17,13,2.10
2012,11,10,17,14,2.00
2012,11,10,17,15,2.00
2012,11,10,17,16,2.00
2012,11,10,17,17,1.90
2012,11,10,17,18,1.90
2012,11,10,17,19,1.90
2012,11,10,17,20,1.90
2012,11,10,17,21,1.80
2012,11,10,17,22,1.80
2012,11,10,17,23,1.80
2012,11,10,17,24,1.80
2012,11,10,17,25,1.70
2012,11,10,17,26,1.70
2012,11,10,17,27,1.70
2012,11,10,17,28,1.70
2012,11,10,17,29,1.60
2012,11,10,17,30,1.60
2012,11,10,17,31,1.60
2012,11,10,17,32,1.60
2012,11,10,17,33,1.60
2012,11,10,17,34,1.60
2012,11,10,17,35,1.50
2012,11,10,17,36,1.50
2012,11,10,17,37,1.50
2012,11,10,17,38,1.50
2012,11,10,17,39,1.40
2012,11,10,17,40,1.40
2012,11,10,17,41,1.40
2012,11,10,17,42,1.40
2012,11,10,17,43,1.30
2012,11,10,17,44,1.30
2012,11,10,17,45,1.30
2012,11,10,17,46,1.30
2012,11,10,17,47,1.30
2012,11,10,17,48,1.30
2012,11,10,17,49,1.30
2012,11,10,17,50,1.20
2012,11,10,17,51,1.20
2012,11,10,17,52,1.20
2012,11,10,17,53,1.20
2012,11,10,17,54,1.20